Theta_e
315 316 315 316 317 317 317 317 316 317 318 318 317 317 318 317 316 315 313 313 313 312
316 312 312 314 315 316 318 317 315 315 316 318 318 317 316 317 316 316 314 314 315 315
316 316 312 311 311 312 312 314 316 316 315 316 317 317 316 315 315 316 316 315 313 313
315 314 313 311 311 312 312 312 312 317 317 315 316 316 316 315 315 314 315 316 315 315
315 316 315 314 314 312 312 312 312 312 316 318 316 316 315 316 317 316 314 314 314 314
315 315 315 316 317 316 314 313 312 313 312 314 316 317 316 315 314 315 315 316 315 315
315 315 316 316 316 316 316 315 314 313 312 312 313 315 316 315 314 314 313 314 315 315
316 317 318 317 316 317 316 316 316 315 314 314 312 312 312 314 315 314 314 314 314 315
305 311 314 317 317 317 317 317 317 315 315 315 315 306 301 305 311 312 313 313 314 315
299 301 302 303 305 313 316 317 317 317 317 316 316 303 301 299 311 312 312 312 312 312
293 294 295 297 299 299 302 303 309 315 317 317 317 304 301 301 311 313 313 313 313 312
289 289 291 292 292 294 297 299 300 303 304 312 316 304 299 300 311 312 313 314 314 313
285 286 287 288 288 290 293 295 296 294 290 288 288 289 289 292 309 311 311 312 310 288
283 285 285 285 286 287 289 290 288 285 284 284 284 286 288 290 294 303 302 289 285 285
Wind_Speed
6 6 6 7 6 7 9 11 12 11 10 9 8 5 6 6 5 6 8 9 8 7
8 6 7 7 4 7 10 7 8 10 11 11 10 10 9 7 11 12 12 8 8 8
8 9 6 5 7 5 4 5 8 11 11 12 13 13 13 12 13 14 13 10 8 7
8 7 6 7 7 8 6 6 5 9 10 11 12 14 15 17 15 14 14 10 10 13
8 9 10 9 9 7 8 6 9 6 8 11 13 14 14 14 13 14 14 13 13 14
8 8 9 10 11 10 10 10 10 12 12 13 12 13 13 15 15 14 14 14 14 14
11 10 10 10 10 11 12 13 14 14 15 15 14 15 15 15 15 16 16 16 17 17
8 9 10 11 11 11 12 14 14 15 16 16 16 14 18 18 19 18 18 18 18 18
10 10 5 9 12 13 14 15 14 16 16 17 15 20 21 20 18 20 20 20 20 19
12 11 10 9 10 7 11 13 15 16 17 19 20 20 22 23 19 20 19 20 19 18
11 11 11 11 11 11 9 9 10 13 16 18 18 23 22 21 20 20 22 22 21 20
12 11 10 10 11 10 10 9 10 11 14 16 18 19 17 14 17 19 24 22 22 21
11 10 11 11 11 10 9 10 8 10 11 15 14 16 15 8 12 17 16 18 13 12
12 11 11 10 9 9 9 7 6 7 9 12 16 15 22 14 3 9 7 2 5 5
Wind_Direction
195 173 172 177 179 188 188 188 178 171 169 182 169 161 152 185 196 236 247 203 197 198
189 187 170 165 172 189 199 185 167 178 184 185 190 183 181 195 208 220 233 224 213 209
188 193 177 160 170 182 183 172 170 178 186 192 199 201 203 218 219 209 222 220 209 214
202 195 184 195 188 179 170 189 184 187 192 192 196 204 207 212 216 215 220 218 214 227
197 196 200 208 211 201 204 189 196 199 213 214 214 209 209 213 212 213 218 220 221 227
201 201 207 210 210 207 211 213 214 213 213 219 223 224 222 223 226 224 222 222 224 225
207 204 208 209 212 211 210 212 213 220 225 226 225 226 226 226 228 231 230 229 231 227
226 215 217 216 217 216 215 218 221 218 222 227 230 232 232 233 234 236 236 234 234 233
18 36 322 247 225 221 226 227 225 226 225 226 227 228 221 229 235 238 237 238 237 239
15 13 8 351 355 311 254 243 233 231 230 232 236 231 218 214 233 239 238 240 241 240
11 5 358 350 352 345 334 330 319 268 244 242 243 239 233 223 228 236 239 240 239 241
5 1 357 356 344 335 326 325 319 313 308 295 254 249 253 218 231 234 238 240 240 239
10 6 4 350 344 337 331 325 340 341 21 15 359 351 346 348 249 237 238 238 256 17
14 14 13 1 358 345 352 5 18 28 28 25 15 3 2 348 259 265 267 18 72 49